MDT,Max TemperatureF,Mean TemperatureF,Min TemperatureF,Max Dew PointF,MeanDew PointF,Min DewpointF,Max Humidity, Mean Humidity, Min Humidity, Max Sea Level PressureIn, Mean Sea Level PressureIn, Min Sea Level PressureIn, Max VisibilityMiles, Mean VisibilityMiles, Min VisibilityMiles, Max Wind SpeedMPH, Mean Wind SpeedMPH, Max Gust SpeedMPH,PrecipitationIn, CloudCover, Events, WindDirDegrees
2012-8-1,94,80,65,48,39,34,37,26,14,29.93,29.87,29.81,10,10,10,14,5,21,0.02,0,Rain,194
2012-8-2,91,74,56,43,27,17,53,31,8,30.04,29.82,29.73,10,10,10,17,9,31,0.00,0,,281
2012-8-3,87,70,53,40,32,23,51,33,15,30.04,29.79,29.71,10,10,9,20,7,35,0.00,0,,28
2012-8-4,81,63,45,38,36,33,70,45,19,30.16,30.08,30.02,10,10,10,14,6,,0.00,0,,299
2012-8-5,92,72,52,38,32,27,51,31,10,30.11,30.02,29.92,10,10,10,14,6,,0.00,0,,238
2012-8-6,93,81,69,42,36,28,33,24,15,30.22,30.02,29.94,10,10,10,15,8,22,0.00,0,Thunderstorm,318
2012-8-7,91,74,57,45,36,28,49,30,11,30.12,30.05,29.99,10,10,8,13,6,,0.00,0,,227
2012-8-8,93,75,56,39,33,29,40,26,11,30.12,30.04,29.96,10,9,8,13,4,,0.00,0,,274
2012-8-9,93,77,60,46,38,27,33,24,15,30.21,30.02,29.91,10,9,6,12,6,16,T,1,Rain-Thunderstorm,305
2012-8-10,95,78,60,52,44,39,63,40,16,30.09,29.92,29.74,10,10,7,21,6,38,T,2,Rain-Thunderstorm,322
2012-8-11,84,73,61,55,49,36,84,51,17,30.15,29.93,29.80,10,10,8,23,9,29,0.01,2,Rain-Thunderstorm,31
2012-8-12,92,77,61,43,33,28,27,19,11,29.98,29.89,29.81,10,10,10,14,9,21,0.00,0,,9
2012-8-13,91,76,61,43,36,29,44,28,11,30.17,29.90,29.78,10,8,5,16,9,,0.00,0,Thunderstorm,267
2012-8-14,92,75,57,45,32,20,44,27,10,29.88,29.79,29.69,9,7,4,13,5,,0.00,0,,295
2012-8-15,77,67,57,46,38,22,57,36,14,30.20,29.90,29.69,10,9,4,16,10,22,0.00,3,,82
2012-8-16,78,66,53,45,44,42,66,49,31,30.13,30.05,29.94,10,10,10,12,5,16,0.00,2,,340
2012-8-17,83,68,52,44,41,36,71,46,20,30.03,29.98,29.90,10,10,9,12,6,17,0.00,0,,302
2012-8-18,82,67,51,37,32,26,51,34,16,30.09,30.02,29.96,10,10,10,13,5,21,0.00,0,,246
2012-8-19,84,67,50,35,30,25,38,26,14,30.05,29.97,29.87,10,10,10,10,5,15,0.00,0,,280
2012-8-20,83,72,60,46,36,27,37,28,19,29.93,29.89,29.85,10,9,7,10,5,,T,2,,285
2012-8-21,90,72,53,42,38,27,55,35,15,30.00,29.87,29.72,10,9,7,12,5,15,0.00,0,,228
2012-8-22,89,77,65,44,39,35,31,24,17,29.83,29.76,29.72,10,10,9,18,7,25,0.00,0,,177
2012-8-23,90,73,55,41,34,28,47,30,12,29.86,29.76,29.67,10,10,8,14,5,,0.00,0,,214
2012-8-24,91,74,57,39,27,19,39,24,9,29.90,29.72,29.62,10,10,9,17,6,36,0.00,0,,283
2012-8-25,85,67,48,27,21,8,34,22,9,30.07,29.86,29.76,10,10,10,12,5,16,0.00,0,,228
2012-8-26,88,70,52,41,29,16,28,21,14,30.11,29.93,29.86,10,10,9,20,8,29,0.00,1,,238
2012-8-27,93,76,59,42,39,37,42,29,15,30.04,29.95,29.89,10,10,10,18,8,26,0.00,0,,245
2012-8-28,94,80,65,42,38,34,36,25,13,30.04,29.91,29.80,10,10,10,17,7,21,0.00,1,,240
2012-8-29,96,82,68,43,33,25,33,21,9,29.95,29.76,29.68,10,10,10,18,8,30,0.00,0,,270
2012-8-30,84,69,54,46,35,26,41,30,18,29.90,29.85,29.79,10,10,10,31,8,38,T,1,,181
2012-8-31,86,75,63,47,44,40,52,38,24,30.11,29.87,29.79,10,10,10,23,6,35,0.00,1,,333